Location: Appleton
(44.2618°N, 88.4157°W)
Time: 11:31:13
(UTC+00:00)

S-56A Canister/Altair - Pass Details

Date: 06 March 2021
Orbit: 632 x 2500 km, 38.9° (Epoch: 18 April)

Event Time Altitude Azimuth Distance (km) Brightness Sun altitude
Rises 20:00:52 0° 249° (WSW) 5,479 12.6 34.0°
Reaches altitude 10° 20:04:10 10° 247° (WSW) 4,668 12.5 33.6°
Maximum altitude 20:17:50 68° 169° (S) 2,613 11.0 32.1°
Drops below altitude 10° 20:32:37 10° 91° (E) 5,009 11.4 30.3°
Sets 20:36:17 0° 89° (E) 5,886 11.7 29.9°
